Date,TemperatureHighF,TemperatureAvgF,TemperatureLowF,DewpointHighF,DewpointAvgF,DewpointLowF,HumidityHigh,HumidityAvg,HumidityLow,PressureMaxIn,PressureMinIn,WindSpeedMaxMPH,WindSpeedAvgMPH,GustSpeedMaxMPH,PrecipitationSumIn
2013-2-1,25.2,21.6,15.4,3.2,-7.9,-13.4,45,27,24,30.09,29.56,15,6,24,0.00
2013-2-2,24.1,17.0,8.1,-6.5,-11.9,-19.1,30,26,24,30.15,29.97,8,2,11,0.00
2013-2-3,27.1,18.7,10.2,-1.6,-7.6,-12.3,45,31,23,29.97,29.74,5,1,8,0.00
2013-2-4,25.3,21.1,17.4,2.2,-5.4,-9.3,43,31,24,29.83,29.71,13,6,18,0.00
2013-2-5,27.3,22.8,15.1,-5.4,-8.0,-12.1,34,25,23,29.97,29.83,5,1,8,0.00
2013-2-6,32.7,24.1,15.4,4.7,-3.4,-13.4,43,30,23,30.33,29.83,14,4,24,0.00
2013-2-7,22.5,16.3,9.5,-8.1,-12.7,-17.8,27,26,25,30.50,30.30,6,3,10,0.00
2013-2-8,27.9,22.4,16.3,13.5,1.2,-12.6,56,40,25,30.33,29.80,10,4,15,0.00
2013-2-9,25.5,19.3,5.0,10.6,-5.0,-21.7,53,34,24,30.30,29.80,14,4,22,0.00
2013-2-10,28.9,14.3,2.5,-4.3,-14.6,-23.9,27,26,23,30.45,30.21,4,1,6,0.00
2013-2-11,40.8,32.0,15.1,29.8,8.0,-13.7,66,37,24,30.21,29.59,11,3,18,0.00
2013-2-12,36.1,34.7,31.5,7.3,3.0,-1.1,30,26,22,29.88,29.62,13,7,23,0.00
2013-2-13,37.2,31.9,27.9,5.3,0.8,-5.2,33,26,22,29.85,29.68,9,2,11,0.00
2013-2-14,36.9,30.0,22.8,2.5,-2.1,-6.0,33,25,22,29.88,29.68,8,2,12,0.00
2013-2-15,44.2,36.0,27.9,8.5,3.2,-1.1,41,25,20,29.94,29.83,10,3,15,0.00
2013-2-16,32.9,28.1,22.5,-0.9,-4.6,-8.3,25,23,23,29.94,29.80,8,4,17,0.00
2013-2-17,23.7,18.0,10.2,-7.6,-11.6,-17.2,27,25,24,29.88,29.62,17,7,27,0.00
2013-2-18,24.3,14.7,5.4,-7.4,-14.1,-21.4,27,26,24,30.15,29.88,11,6,20,0.00
2013-2-19,39.9,28.7,15.8,28.2,1.4,-13.1,70,32,21,30.09,29.56,11,3,19,0.00
2013-2-20,32.0,25.7,22.6,4.7,-5.2,-8.3,32,25,23,29.83,29.62,16,9,26,0.00
2013-2-21,22.6,18.6,15.1,1.5,-10.4,-13.7,42,26,25,30.33,29.80,14,8,24,0.00
2013-2-22,35.8,27.3,17.6,1.0,-3.2,-8.7,36,26,22,30.36,30.18,7,2,11,0.00
2013-2-23,37.6,34.8,32.2,28.7,14.6,0.7,72,46,25,30.18,29.83,8,2,13,0.00
2013-2-24,39.4,35.3,31.1,33.5,17.2,1.2,82,51,25,29.91,29.74,11,3,17,0.00
2013-2-25,39.9,34.1,28.6,13.8,6.1,0.5,49,32,21,30.21,29.91,6,2,8,0.00
2013-2-26,42.3,34.7,25.5,25.0,6.1,0.2,68,32,21,30.27,30.00,5,1,11,0.00
2013-2-27,41.2,37.5,33.3,28.3,18.9,0.6,70,48,22,30.00,29.53,8,2,13,0.00
2013-2-28,42.6,38.4,36.0,34.1,20.0,6.0,74,50,23,29.56,29.50,5,1,7,0.00